Weather Roundup
Issued by NWS Corpus Christi, TX

Home | Current Version | Previous Version | Text Only | Print | Product List | Glossary On
Versions: 1 2 3 4 5 6 7 8 9 10 11 12 13 14 15 16 17 18 19 20 21 22 23 24 25 26 27 28 29 30 31 32 33 34 35 36 37 38 39 40 41 42 43 44 45 46 47 48 49 50
000
ASUS44 KCRP 272010
HRRCRP

SOUTH TEXAS REGIONAL WEATHER ROUNDUP
NATIONAL WEATHER SERVICE CORPUS CHRISTI TX
300 PM CDT WED JUL 27 2016


TXZ229>244-272100-
...CORPUS CHRISTI AREA OBSERVATIONS...

CITY           SKY/WX    TMP DP  RH WIND       PRES   REMARKS
CORPUS CHRISTI PTSUNNY   95  75  52 SE17G30   29.92F HX 107
NAS CORPUS CHR PTSUNNY   92  77  61 S17       29.93F HX 105
ROCKPORT       MOSUNNY   89  75  63 SE15      29.94F HX  99
KINGSVILLE NAS PTSUNNY   95  78  58 SE17G23   29.90F HX 111
ALICE          PTSUNNY   99  62  29 SE14G22   29.89F HX 100
FALFURRIAS     MOSUNNY  100  60  27 SE13      29.89F HX 100
$$

...VICTORIA AREA OBSERVATIONS...

CITY           SKY/WX    TMP DP  RH WIND       PRES   REMARKS
VICTORIA       CLOUDY    95  70  44 SE18G25   29.95F HX 101
BEEVILLE       FAIR      97  69  41 S14G21    29.92F HX 102
PLEASANTON     MOSUNNY   75  73  92 NW7       29.95F
SAN ANTONIO    TSTM      74  70  87 N5        30.02R FOG
$$

...LAREDO AREA OBSERVATIONS...

CITY           SKY/WX    TMP DP  RH WIND       PRES   REMARKS
LAREDO         CLOUDY    95  69  42 SE20G25   29.91F HX 100
COTULLA        CLOUDY    90  72  55 SE8       29.92F HX  97
DEL RIO        CLOUDY    88  72  58 E6        29.92F HX  94
MCALLEN        CLOUDY    99  72  41 SE21      29.90F HX 108
HEBBRONVILLE   MOSUNNY   92  62  36 SE12G18   29.93F HX  93
$$

...OTHER TEXAS OBSERVATIONS...

CITY           SKY/WX    TMP DP  RH WIND       PRES   REMARKS
BROWNSVILLE    CLOUDY    94  71  47 SE17G24   29.92F HX 101
HOUSTON        LGT RAIN  79  75  87 SE6       29.99F
COL. STATION   CLOUDY    81  74  79 S10       29.96F
AUSTIN         MOSUNNY   89  73  59 SW8       29.95F HX  97
WACO           MOSUNNY   96  66  37 SE8       29.91F HX  99
FORT WORTH     PTSUNNY   95  69  42 W3        29.90F HX 100
WICHITA FALLS  CLOUDY    91  69  48 CALM      29.90F HX  96
LUBBOCK        PTSUNNY   96  55  25 NE9       30.04F HX  94
EL PASO        MOSUNNY   90  57  32 N6        30.07F
$$

...MARINE OBSERVATIONS...

STATION/POSITION TIME  SKY/WX   TEMP    WIND        PRES    VSBY  WAVE   SWELL
                                AIR SEA DIR/SP/G                  HT/PER HT/PER
                 (UTC)          (F)     (DEG/KT/KT) (MB)    (MI)  (FT/S) (FT/S)
PORT ARANSAS     2000            85 88  150/ 17/ 18 1014.2F
BUOY 90 E PORT A 1950            86 85  170/  8/ 10 1015.1F         4/ 6   3/ 6
BUOY 45 SE BAFFI 1950            85 85  170/ 12/ 14 1013.7F         3/ 7   2/ 7
BUOY 200 E PT IS 1950            87 86  140/ 12/ 14 1015.2F         4/ 6
BUOY 15 E GALVES 1950            85 86  180/  8/  8 1015.5F         3/ 6   3/ 6
$$



USA.gov is the U.S. government's official web portal to all federal, state and local government web resources and services.